WetterOnline ( https://www.wetteronline.de )

Wetter aktuell Mittenwald

Aktuelles Wetter: Garmisch-Partenkirchen (719m)

6-stündlich | Neueste Meldungen
Ortszeit Temperatur Wetter
Do, 29.02. 7:00 3.8° C bedeckt
Do, 29.02. 1:00 4.2° C bedeckt
Mi, 28.02. 19:00 4.6° C bedeckt
Mi, 28.02. 13:00 6.2° C bedeckt
Mi, 28.02. 7:00 4.7° C bedeckt
Mi, 28.02. 1:00 5.0° C bedeckt
Di, 27.02. 19:00 6.2° C bedeckt
Di, 27.02. 13:00 8.0° C bewölkt
Ortszeit Temperatur Wetter
Do, 29.02. 9:00 4.9° C bedeckt
Do, 29.02. 8:50 4.9° C bedeckt
Do, 29.02. 8:40 4.7° C bedeckt
Do, 29.02. 8:30 4.5° C bedeckt
Do, 29.02. 8:20 4.5° C bedeckt
Do, 29.02. 8:10 4.5° C bedeckt
Do, 29.02. 8:00 4.2° C bedeckt
Do, 29.02. 7:30 3.8° C bedeckt
Do, 29.02. 7:00 3.8° C bedeckt
Do, 29.02. 6:30 3.8° C bedeckt
Do, 29.02. 6:00 3.7° C bedeckt
Ortszeit Relative Feuchte Sichtweite
Do, 29.02. 7:00 94% 3.8 km
Do, 29.02. 1:00 93% 4.9 km
Mi, 28.02. 19:00 91% 6 km
Mi, 28.02. 13:00 81% 14 km
Mi, 28.02. 7:00 85% 20 km
Mi, 28.02. 1:00 83% 21 km
Di, 27.02. 19:00 76% 30 km
Di, 27.02. 13:00 66% 40 km
Ortszeit Relative Feuchte Sichtweite
Do, 29.02. 9:00 81% 30 km
Do, 29.02. 8:50 81% -
Do, 29.02. 8:40 81% -
Do, 29.02. 8:30 83% 29 km
Do, 29.02. 8:20 83% -
Do, 29.02. 8:10 85% -
Do, 29.02. 8:00 86% 24 km
Do, 29.02. 7:30 93% 6 km
Do, 29.02. 7:00 94% 3.8 km
Do, 29.02. 6:30 95% 3.2 km
Do, 29.02. 6:00 96% 2.5 km
Ortszeit Niederschlagsmenge Niederschlagsart
Do, 29.02. 7:00 0.0 l/m2 in 12 Std. -
Do, 29.02. 1:00 0.0 l/m2 in 6 Std. -
Mi, 28.02. 19:00 0.0 l/m2 in 12 Std. -
Mi, 28.02. 13:00 0.0 l/m2 in 6 Std. -
Mi, 28.02. 7:00 0.0 l/m2 in 12 Std. -
Mi, 28.02. 1:00 0.0 l/m2 in 6 Std. -
Di, 27.02. 19:00 0.0 l/m2 in 12 Std. -
Di, 27.02. 13:00 0.0 l/m2 in 6 Std. -
Ortszeit Niederschlagsmenge Niederschlagsart
Do, 29.02. 9:00 0.0 l/m2 in 1 Std. -
Do, 29.02. 8:50 keine Meldung -
Do, 29.02. 8:40 keine Meldung -
Do, 29.02. 8:30 0.0 l/m2 in 30 Min -
Do, 29.02. 8:20 keine Meldung -
Do, 29.02. 8:10 keine Meldung -
Do, 29.02. 8:00 0.0 l/m2 in 1 Std. -
Do, 29.02. 7:30 0.0 l/m2 in 30 Min -
Do, 29.02. 7:00 0.0 l/m2 in 1 Std. -
Do, 29.02. 6:30 0.0 l/m2 in 30 Min -
Do, 29.02. 6:00 0.0 l/m2 in 1 Std. -
Ortszeit Stärke Spitze Richtung
km/h Bft. km/h Grad Sektor
Do, 29.02. 7:00 0 0 11 - -
Do, 29.02. 1:00 0 0 14 - -
Mi, 28.02. 19:00 4 1 22 100° O
Mi, 28.02. 13:00 7 2 14 40° NO
Mi, 28.02. 7:00 6 1 11 70° O
Mi, 28.02. 1:00 2 1 20 200° S
Di, 27.02. 19:00 7 2 29 40° NO
Di, 27.02. 13:00 11 2 22 60° NO
Ortszeit Stärke Spitze Richtung
km/h Bft. km/h Grad Sektor
Do, 29.02. 9:00 2 1 6 360° N
Do, 29.02. 8:50 2 1 - 360° N
Do, 29.02. 8:40 2 1 - 350° N
Do, 29.02. 8:30 0 0 4 - -
Do, 29.02. 8:20 2 1 - 290° W
Do, 29.02. 8:10 2 1 - 250° W
Do, 29.02. 8:00 4 1 7 250° W
Do, 29.02. 7:30 4 1 7 210° SW
Do, 29.02. 7:00 0 0 4 - -
Do, 29.02. 6:30 2 1 4 210° SW
Do, 29.02. 6:00 0 0 4 - -
Ortszeit Untergrenze Bedeckung Gattung
total tief tief mittel hoch
Do, 29.02. 7:00 300 m 8/8 8/8 - - -
Do, 29.02. 1:00 150 m 8/8 8/8 - - -
Mi, 28.02. 19:00 150 m 8/8 8/8 - - -
Mi, 28.02. 13:00 510 m 8/8 8/8 - - -
Mi, 28.02. 7:00 630 m 8/8 8/8 - - -
Mi, 28.02. 1:00 450 m 8/8 8/8 - - -
Di, 27.02. 19:00 570 m 8/8 8/8 - - -
Di, 27.02. 13:00 4800 m 8/8 7/8 - - -
Ortszeit Bedeckungsgrad in Achtel und Wolkenuntergrenze
Do, 29.02. 9:00 8(300m)
Do, 29.02. 8:50 8(300m)
Do, 29.02. 8:40 8
Do, 29.02. 8:30 8(330m)
Do, 29.02. 8:20 8(330m)
Do, 29.02. 8:10 8
Do, 29.02. 8:00 8(330m)
Do, 29.02. 7:30 8(450m)
Do, 29.02. 7:00 3(300m) 8(480m)
Do, 29.02. 6:30 8(210m)
Do, 29.02. 6:00 8(150m)
Ortszeit Luftdruck NN (hPa) Tendenz (hPa in 3 Std.)
Do, 29.02. 7:00 1019 - 1,0
Do, 29.02. 1:00 1021 - 1,2
Mi, 28.02. 19:00 1022 + 0,8
Mi, 28.02. 13:00 1021 + 0,4
Mi, 28.02. 7:00 1019 + 1,6
Mi, 28.02. 1:00 1016 + 0,8
Di, 27.02. 19:00 1013 + 2,4
Di, 27.02. 13:00 1009 - 0,1
Ortszeit Luftdruck NN (hPa) Tendenz (hPa in 3 Std.)
Do, 29.02. 9:00 1018 - 0,9
Do, 29.02. 8:50 1018 keine Meldung
Do, 29.02. 8:40 1018 keine Meldung
Do, 29.02. 8:30 1018 - 1,1
Do, 29.02. 8:20 1018 keine Meldung
Do, 29.02. 8:10 1018 keine Meldung
Do, 29.02. 8:00 1018 - 0,8
Do, 29.02. 7:30 1019 - 0,8
Do, 29.02. 7:00 1019 - 1,0
Do, 29.02. 6:30 1019 - 1,1
Do, 29.02. 6:00 1019 - 1,4
Ortszeit Schneehöhe (cm)
Do, 29.02. 7:00 0
Do, 29.02. 1:00 0
Mi, 28.02. 19:00 0
Mi, 28.02. 13:00 0
Mi, 28.02. 7:00 0
Mi, 28.02. 1:00 0
Di, 27.02. 19:00 0
Di, 27.02. 13:00 0
Ortszeit Schneehöhe (cm)
Do, 29.02. 9:00 0
Do, 29.02. 8:50 0
Do, 29.02. 8:40 -
Do, 29.02. 8:30 0
Do, 29.02. 8:20 0
Do, 29.02. 8:10 -
Do, 29.02. 8:00 0
Do, 29.02. 7:30 0
Do, 29.02. 7:00 0
Do, 29.02. 6:30 0
Do, 29.02. 6:00 0
Link zu dieser Seite / Seite empfehlen

Das Wetter in ...